When you browse on this site, cookies collect data to enhance your experience and personalize the content and advertising you see.
Visit our Privacy Policy to learn more. By continuing to use the site, you agree to this use of cookies and data.
  • In Portugal
  • List of Countries
  • For 7 days
  • Water Temperature
  • Satellite Maps
  • Weather Map
  • Weather Widgets
  • user-avatar
    Login

    Hourly Weather Urzuty

    Today, 19 June, Wednesday

    Time Temperature Precipitation Wind Pressure Humidity
    00:00 +18°C° 0 mm 2 mps 744 mmHg 92%
    01:00 +19°C° 0 mm 1 mps 744 mmHg 94%
    02:00 +18°C° 0 mm 1 mps 744 mmHg 95%
    03:00 +17°C° 0 mm 2 mps 744 mmHg 95%
    04:00 +17°C° 0 mm 2 mps 744 mmHg 96%
    05:00 +19°C° 0 mm 1 mps 744 mmHg 92%
    06:00 +21°C° 0 mm 1 mps 744 mmHg 88%
    07:00 +22°C° 0 mm 1 mps 744 mmHg 82%
    08:00 +24°C° 0 mm 1 mps 744 mmHg 76%
    09:00 +25°C° 0 mm 1 mps 743 mmHg 70%
    10:00 +27°C° 0 mm 1 mps 743 mmHg 65%
    11:00 +28°C° 0 mm 1 mps 743 mmHg 62%
    12:00 +28°C° 0 mm 1 mps 743 mmHg 58%
    13:00 +29°C° 0 mm 1 mps 742 mmHg 55%
    14:00 +29°C° 0 mm 1 mps 742 mmHg 55%
    15:00 +29°C° 0 mm 1 mps 742 mmHg 55%
    16:00 +27°C° 0 mm 0 mps 741 mmHg 54%
    17:00 +26°C° 0 mm 0 mps 741 mmHg 60%
    18:00 +25°C° 0 mm 0 mps 741 mmHg 65%
    19:00 +26°C° 0 mm 1 mps 741 mmHg 70%
    20:00 +24°C° 0.2 mm 1 mps 741 mmHg 74%
    21:00 +23°C° 0.2 mm 1 mps 741 mmHg 77%
    22:00 +22°C° 0.2 mm 1 mps 741 mmHg 81%
    23:00 +21°C° 0 mm 1 mps 741 mmHg 82%

    Tomorrow, 20 June, Thursday

    Time Temperature Precipitation Wind Pressure Humidity
    00:00 +21°C° 0 mm 1 mps 741 mmHg 83%
    01:00 +21°C° 0 mm 1 mps 741 mmHg 84%
    02:00 +20°C° 0 mm 1 mps 741 mmHg 85%
    03:00 +20°C° 0 mm 1 mps 741 mmHg 85%
    04:00 +20°C° 0 mm 1 mps 741 mmHg 86%
    05:00 +21°C° 0.2 mm 1 mps 741 mmHg 83%
    06:00 +22°C° 0.2 mm 1 mps 741 mmHg 80%
    07:00 +24°C° 0.2 mm 1 mps 741 mmHg 78%
    08:00 +25°C° 0.1 mm 1 mps 741 mmHg 73%
    09:00 +27°C° 0.1 mm 1 mps 741 mmHg 67%
    10:00 +28°C° 0.1 mm 1 mps 741 mmHg 62%
    11:00 +29°C° 0.3 mm 1 mps 741 mmHg 59%
    12:00 +29°C° 0.3 mm 1 mps 741 mmHg 55%
    13:00 +30°C° 0.3 mm 1 mps 741 mmHg 52%
    14:00 +30°C° 0 mm 1 mps 741 mmHg 55%
    15:00 +29°C° 0 mm 1 mps 741 mmHg 59%
    16:00 +29°C° 0 mm 1 mps 741 mmHg 63%
    17:00 +28°C° 0.2 mm 1 mps 741 mmHg 67%
    18:00 +26°C° 0.2 mm 1 mps 741 mmHg 72%
    19:00 +25°C° 0.2 mm 1 mps 740 mmHg 77%
    20:00 +24°C° 0.2 mm 1 mps 741 mmHg 78%
    21:00 +23°C° 0.2 mm 1 mps 741 mmHg 79%
    22:00 +23°C° 0.2 mm 1 mps 741 mmHg 80%
    23:00 +22°C° 0 mm 1 mps 741 mmHg 81%

    Day after tomorrow, 21 June, Friday

    Time Temperature Precipitation Wind Pressure Humidity
    00:00 +22°C° 0 mm 1 mps 741 mmHg 83%
    01:00 +21°C° 0 mm 1 mps 741 mmHg 85%
    02:00 +21°C° 0.6 mm 1 mps 742 mmHg 87%
    03:00 +20°C° 0.6 mm 1 mps 742 mmHg 90%
    04:00 +18°C° 0.6 mm 2 mps 742 mmHg 93%
    05:00 +20°C° 0.1 mm 2 mps 742 mmHg 90%
    06:00 +21°C° 0.1 mm 2 mps 742 mmHg 88%
    07:00 +22°C° 0.1 mm 3 mps 743 mmHg 86%
    08:00 +24°C° 0.1 mm 3 mps 743 mmHg 81%
    09:00 +25°C° 0.1 mm 3 mps 743 mmHg 76%
    10:00 +27°C° 0.1 mm 3 mps 743 mmHg 71%
    11:00 +27°C° 0.4 mm 2 mps 743 mmHg 67%
    12:00 +28°C° 0.4 mm 2 mps 743 mmHg 64%
    13:00 +29°C° 0.4 mm 2 mps 742 mmHg 61%
    14:00 +28°C° 0.8 mm 2 mps 742 mmHg 63%
    15:00 +28°C° 0.8 mm 2 mps 743 mmHg 66%
    16:00 +27°C° 0.8 mm 1 mps 743 mmHg 69%
    17:00 +26°C° 0.2 mm 2 mps 743 mmHg 74%
    18:00 +25°C° 0.2 mm 2 mps 743 mmHg 79%
    19:00 +24°C° 0.2 mm 2 mps 743 mmHg 85%
    20:00 +23°C° 0.4 mm 2 mps 743 mmHg 87%
    21:00 +21°C° 0.4 mm 2 mps 743 mmHg 88%
    22:00 +20°C° 0.4 mm 2 mps 744 mmHg 90%
    23:00 +20°C° 0.1 mm 2 mps 744 mmHg 91%

    22 June, Saturday

    Time Temperature Precipitation Wind Pressure Humidity
    00:00 +19°C° 0.1 mm 2 mps 744 mmHg 92%
    01:00 +19°C° 0.1 mm 2 mps 744 mmHg 93%
    02:00 +19°C° 0.2 mm 2 mps 744 mmHg 94%
    03:00 +19°C° 0.2 mm 2 mps 744 mmHg 96%
    04:00 +18°C° 0.2 mm 2 mps 744 mmHg 97%
    05:00 +19°C° 0.3 mm 3 mps 745 mmHg 95%
    06:00 +20°C° 0.3 mm 3 mps 745 mmHg 94%
    07:00 +20°C° 0.3 mm 3 mps 745 mmHg 92%
    08:00 +21°C° 0.1 mm 3 mps 745 mmHg 90%
    09:00 +21°C° 0.1 mm 4 mps 745 mmHg 88%
    10:00 +21°C° 0.1 mm 5 mps 745 mmHg 86%
    11:00 +22°C° 0.2 mm 5 mps 745 mmHg 82%
    12:00 +23°C° 0.2 mm 5 mps 745 mmHg 79%
    13:00 +25°C° 0.2 mm 5 mps 745 mmHg 76%
    14:00 +23°C° 0.8 mm 5 mps 745 mmHg 78%
    15:00 +23°C° 0.8 mm 5 mps 745 mmHg 80%
    16:00 +23°C° 0.8 mm 5 mps 745 mmHg 82%
    17:00 +22°C° 0.3 mm 4 mps 745 mmHg 84%
    18:00 +21°C° 0.3 mm 4 mps 744 mmHg 86%
    19:00 +20°C° 0.3 mm 4 mps 744 mmHg 87%
    20:00 +20°C° 0.4 mm 4 mps 744 mmHg 90%
    21:00 +19°C° 0.4 mm 3 mps 744 mmHg 92%
    22:00 +19°C° 0.4 mm 3 mps 745 mmHg 95%
    23:00 +19°C° 0.1 mm 3 mps 744 mmHg 96%

    23 June, Sunday

    Time Temperature Precipitation Wind Pressure Humidity
    00:00 +19°C° 0.1 mm 3 mps 744 mmHg 96%
    01:00 +19°C° 0.1 mm 3 mps 744 mmHg 97%
    02:00 +19°C° 0.1 mm 1 mps 742 mmHg 97%
    03:00 +19°C° 0.1 mm 1 mps 742 mmHg 97%
    04:00 +19°C° 0.1 mm 1 mps 741 mmHg 97%
    05:00 +20°C° 0 mm 1 mps 742 mmHg 94%
    06:00 +20°C° 0 mm 2 mps 742 mmHg 91%
    07:00 +21°C° 0 mm 2 mps 742 mmHg 88%
    08:00 +22°C° 0.1 mm 3 mps 742 mmHg 86%
    09:00 +23°C° 0.1 mm 4 mps 742 mmHg 83%
    10:00 +23°C° 0.1 mm 5 mps 742 mmHg 80%
    11:00 +23°C° 0.6 mm 6 mps 742 mmHg 80%
    12:00 +22°C° 0.6 mm 6 mps 742 mmHg 80%
    13:00 +22°C° 0.6 mm 7 mps 742 mmHg 80%
    14:00 +21°C° 0 mm 7 mps 742 mmHg 81%
    15:00 +20°C° 0 mm 7 mps 743 mmHg 81%
    16:00 +18°C° 0 mm 7 mps 743 mmHg 82%
    17:00 +17°C° 0 mm 7 mps 743 mmHg 84%
    18:00 +16°C° 0 mm 7 mps 743 mmHg 86%
    19:00 +16°C° 0 mm 6 mps 744 mmHg 87%
    20:00 +15°C° 0.1 mm 7 mps 744 mmHg 89%
    21:00 +15°C° 0.1 mm 7 mps 744 mmHg 90%
    22:00 +15°C° 0.1 mm 7 mps 745 mmHg 91%
    23:00 +14°C° 0.2 mm 7 mps 745 mmHg 92%

    24 June, Monday

    Time Temperature Precipitation Wind Pressure Humidity
    00:00 +14°C° 0.2 mm 7 mps 745 mmHg 92%
    01:00 +14°C° 0.2 mm 7 mps 746 mmHg 93%
    02:00 +14°C° 0.7 mm 7 mps 746 mmHg 94%
    03:00 +14°C° 0.7 mm 7 mps 746 mmHg 94%
    04:00 +12°C° 0.7 mm 7 mps 746 mmHg 95%
    05:00 +13°C° 0.3 mm 6 mps 747 mmHg 94%
    06:00 +13°C° 0.3 mm 6 mps 747 mmHg 94%
    07:00 +13°C° 0.3 mm 5 mps 748 mmHg 93%
    08:00 +13°C° 0 mm 5 mps 748 mmHg 92%
    09:00 +14°C° 0 mm 5 mps 748 mmHg 90%
    10:00 +14°C° 0 mm 5 mps 749 mmHg 89%
    11:00 +16°C° 0 mm 5 mps 749 mmHg 80%
    12:00 +19°C° 0 mm 5 mps 749 mmHg 71%
    13:00 +21°C° 0 mm 5 mps 749 mmHg 62%
    14:00 +21°C° 0 mm 5 mps 749 mmHg 62%
    15:00 +21°C° 0 mm 5 mps 749 mmHg 62%
    16:00 +21°C° 0 mm 4 mps 749 mmHg 61%
    17:00 +20°C° 0 mm 4 mps 750 mmHg 67%
    18:00 +19°C° 0 mm 3 mps 750 mmHg 72%
    19:00 +19°C° 0 mm 2 mps 750 mmHg 77%
    20:00 +17°C° 0 mm 2 mps 750 mmHg 80%
    21:00 +16°C° 0 mm 2 mps 751 mmHg 83%
    22:00 +15°C° 0 mm 2 mps 751 mmHg 86%
    23:00 +14°C° 0 mm 2 mps 751 mmHg 88%
    Show more